When you browse on this site, cookies collect data to enhance your experience and personalize the content and advertising you see.
Visit our Privacy Policy to learn more. By continuing to use the site, you agree to this use of cookies and data.
  • En España
  • Lista de países
  • Para 7 días
  • Temperatura del agua
  • Mapa Satelital
  • El tiempo en el mapa
  • Informadores
  • user-avatar
    Iniciar sesión

    Tiempo cada hora Makivs'ke

    Hoy, 23 Mayo, Jueves

    Tiempo Temperatura Precipitaciones Viento Presión Humedad
    00:00 +16°C° 0 mm 3 mps 750 mmHg 68%
    01:00 +14°C° 0 mm 3 mps 750 mmHg 67%
    02:00 +14°C° 0 mm 3 mps 750 mmHg 67%
    03:00 +14°C° 0 mm 3 mps 750 mmHg 68%
    04:00 +16°C° 0 mm 3 mps 750 mmHg 69%
    05:00 +16°C° 0 mm 3 mps 750 mmHg 70%
    06:00 +18°C° 0 mm 3 mps 750 mmHg 64%
    07:00 +20°C° 0 mm 4 mps 750 mmHg 58%
    08:00 +22°C° 0 mm 4 mps 750 mmHg 52%
    09:00 +23°C° 0 mm 4 mps 750 mmHg 50%
    10:00 +25°C° 0 mm 4 mps 750 mmHg 47%
    11:00 +25°C° 0 mm 4 mps 750 mmHg 44%
    12:00 +25°C° 0 mm 4 mps 750 mmHg 46%
    13:00 +23°C° 0 mm 5 mps 750 mmHg 48%
    14:00 +23°C° 0 mm 5 mps 750 mmHg 50%
    15:00 +23°C° 0 mm 5 mps 750 mmHg 52%
    16:00 +23°C° 0 mm 4 mps 749 mmHg 54%
    17:00 +22°C° 0 mm 4 mps 749 mmHg 56%
    18:00 +21°C° 0 mm 4 mps 749 mmHg 64%
    19:00 +19°C° 0 mm 3 mps 749 mmHg 72%
    20:00 +17°C° 0 mm 3 mps 749 mmHg 80%
    21:00 +17°C° 0 mm 2 mps 749 mmHg 80%
    22:00 +17°C° 0 mm 2 mps 749 mmHg 81%
    23:00 +16°C° 0 mm 1 mps 749 mmHg 81%

    Mañana, 24 Mayo, Viernes

    Tiempo Temperatura Precipitaciones Viento Presión Humedad
    00:00 +16°C° 0 mm 1 mps 749 mmHg 80%
    01:00 +16°C° 0 mm 1 mps 749 mmHg 80%
    02:00 +16°C° 0 mm 1 mps 749 mmHg 79%
    03:00 +16°C° 0 mm 1 mps 749 mmHg 78%
    04:00 +15°C° 0 mm 0 mps 749 mmHg 77%
    05:00 +15°C° 0 mm 0 mps 749 mmHg 75%
    06:00 +17°C° 0 mm 0 mps 749 mmHg 70%
    07:00 +20°C° 0 mm 1 mps 749 mmHg 64%
    08:00 +22°C° 0 mm 1 mps 749 mmHg 59%
    09:00 +23°C° 0 mm 2 mps 749 mmHg 57%
    10:00 +24°C° 0 mm 2 mps 749 mmHg 54%
    11:00 +25°C° 0 mm 3 mps 749 mmHg 52%
    12:00 +25°C° 0 mm 3 mps 749 mmHg 52%
    13:00 +25°C° 0 mm 3 mps 749 mmHg 52%
    14:00 +26°C° 0 mm 4 mps 749 mmHg 52%
    15:00 +25°C° 0 mm 4 mps 748 mmHg 56%
    16:00 +23°C° 0 mm 4 mps 748 mmHg 60%
    17:00 +22°C° 0 mm 4 mps 748 mmHg 64%
    18:00 +21°C° 0 mm 3 mps 748 mmHg 70%
    19:00 +19°C° 0 mm 2 mps 748 mmHg 76%
    20:00 +18°C° 0 mm 2 mps 748 mmHg 82%
    21:00 +17°C° 0.2 mm 2 mps 748 mmHg 83%
    22:00 +18°C° 0.2 mm 1 mps 747 mmHg 84%
    23:00 +18°C° 0.2 mm 1 mps 747 mmHg 85%

    Pasado mañana, 25 Mayo, Sábado

    Tiempo Temperatura Precipitaciones Viento Presión Humedad
    00:00 +18°C° 0.1 mm 1 mps 747 mmHg 86%
    01:00 +16°C° 0.1 mm 1 mps 747 mmHg 87%
    02:00 +16°C° 0.1 mm 1 mps 746 mmHg 88%
    03:00 +16°C° 0 mm 1 mps 746 mmHg 87%
    04:00 +16°C° 0 mm 1 mps 746 mmHg 86%
    05:00 +18°C° 0 mm 1 mps 746 mmHg 85%
    06:00 +19°C° 0.2 mm 1 mps 746 mmHg 82%
    07:00 +20°C° 0.2 mm 1 mps 746 mmHg 78%
    08:00 +21°C° 0.2 mm 1 mps 747 mmHg 74%
    09:00 +22°C° 0 mm 1 mps 747 mmHg 69%
    10:00 +23°C° 0 mm 2 mps 747 mmHg 64%
    11:00 +24°C° 0 mm 2 mps 747 mmHg 60%
    12:00 +24°C° 0.5 mm 2 mps 747 mmHg 60%
    13:00 +24°C° 0.5 mm 2 mps 747 mmHg 60%
    14:00 +24°C° 0.5 mm 3 mps 747 mmHg 61%
    15:00 +24°C° 1 mm 3 mps 747 mmHg 64%
    16:00 +22°C° 1 mm 3 mps 747 mmHg 68%
    17:00 +21°C° 1 mm 3 mps 747 mmHg 71%
    18:00 +20°C° 0.4 mm 3 mps 747 mmHg 75%
    19:00 +19°C° 0.4 mm 2 mps 748 mmHg 79%
    20:00 +18°C° 0.4 mm 2 mps 748 mmHg 82%
    21:00 +18°C° 0.3 mm 2 mps 748 mmHg 84%
    22:00 +17°C° 0.3 mm 2 mps 748 mmHg 85%
    23:00 +16°C° 0.3 mm 2 mps 748 mmHg 86%

    26 Mayo, Domingo

    Tiempo Temperatura Precipitaciones Viento Presión Humedad
    00:00 +16°C° 0 mm 2 mps 748 mmHg 86%
    01:00 +16°C° 0 mm 2 mps 748 mmHg 86%
    02:00 +15°C° 0 mm 2 mps 748 mmHg 86%
    03:00 +15°C° 0 mm 2 mps 748 mmHg 85%
    04:00 +16°C° 0 mm 2 mps 748 mmHg 84%
    05:00 +16°C° 0 mm 3 mps 748 mmHg 83%
    06:00 +18°C° 0.2 mm 3 mps 749 mmHg 77%
    07:00 +20°C° 0.2 mm 3 mps 749 mmHg 71%
    08:00 +22°C° 0.2 mm 4 mps 749 mmHg 66%
    09:00 +23°C° 1.2 mm 4 mps 749 mmHg 64%
    10:00 +25°C° 1.2 mm 5 mps 750 mmHg 62%
    11:00 +25°C° 1.2 mm 5 mps 750 mmHg 60%
    12:00 +25°C° 1.1 mm 5 mps 750 mmHg 60%
    13:00 +25°C° 1.1 mm 5 mps 750 mmHg 60%
    14:00 +24°C° 1.1 mm 6 mps 750 mmHg 61%
    15:00 +25°C° 0.3 mm 5 mps 750 mmHg 62%
    16:00 +25°C° 0.3 mm 5 mps 750 mmHg 64%
    17:00 +25°C° 0.3 mm 5 mps 751 mmHg 65%
    18:00 +22°C° 0 mm 4 mps 751 mmHg 70%
    19:00 +20°C° 0 mm 3 mps 751 mmHg 76%
    20:00 +19°C° 0 mm 3 mps 751 mmHg 81%
    21:00 +18°C° 0 mm 3 mps 751 mmHg 79%
    22:00 +17°C° 0 mm 2 mps 752 mmHg 78%
    23:00 +17°C° 0 mm 2 mps 752 mmHg 76%

    27 Mayo, Lunes

    Tiempo Temperatura Precipitaciones Viento Presión Humedad
    00:00 +17°C° 0 mm 2 mps 752 mmHg 75%
    01:00 +17°C° 0 mm 2 mps 752 mmHg 73%
    02:00 +16°C° 0 mm 1 mps 752 mmHg 71%
    03:00 +16°C° 0 mm 1 mps 752 mmHg 71%
    04:00 +18°C° 0 mm 1 mps 752 mmHg 72%
    05:00 +18°C° 0 mm 1 mps 753 mmHg 72%
    06:00 +19°C° 0 mm 1 mps 753 mmHg 67%
    07:00 +21°C° 0 mm 1 mps 753 mmHg 61%
    08:00 +23°C° 0 mm 2 mps 754 mmHg 56%
    09:00 +24°C° 0 mm 2 mps 754 mmHg 53%
    10:00 +25°C° 0 mm 2 mps 754 mmHg 51%
    11:00 +26°C° 0 mm 2 mps 754 mmHg 48%
    12:00 +26°C° 0 mm 3 mps 754 mmHg 49%
    13:00 +26°C° 0 mm 3 mps 754 mmHg 51%
    14:00 +27°C° 0 mm 4 mps 754 mmHg 52%
    15:00 +26°C° 0 mm 4 mps 754 mmHg 55%
    16:00 +25°C° 0 mm 4 mps 754 mmHg 59%
    17:00 +25°C° 0 mm 4 mps 754 mmHg 62%
    18:00 +22°C° 0 mm 4 mps 754 mmHg 67%
    19:00 +21°C° 0 mm 3 mps 754 mmHg 73%
    20:00 +19°C° 0 mm 3 mps 754 mmHg 78%
    21:00 +19°C° 0 mm 3 mps 754 mmHg 79%
    22:00 +19°C° 0 mm 2 mps 754 mmHg 80%
    23:00 +18°C° 0 mm 2 mps 754 mmHg 80%

    28 Mayo, Martes

    Tiempo Temperatura Precipitaciones Viento Presión Humedad
    00:00 +18°C° 0 mm 2 mps 754 mmHg 80%
    01:00 +18°C° 0 mm 2 mps 754 mmHg 80%
    02:00 +17°C° 0 mm 2 mps 753 mmHg 80%
    03:00 +17°C° 0 mm 2 mps 753 mmHg 79%
    04:00 +17°C° 0 mm 2 mps 753 mmHg 79%
    05:00 +17°C° 0 mm 2 mps 753 mmHg 78%
    06:00 +19°C° 0 mm 3 mps 753 mmHg 72%
    07:00 +21°C° 0 mm 3 mps 753 mmHg 66%
    08:00 +23°C° 0 mm 4 mps 753 mmHg 60%
    09:00 +25°C° 0 mm 4 mps 753 mmHg 55%
    10:00 +26°C° 0 mm 4 mps 753 mmHg 51%
    11:00 +27°C° 0 mm 4 mps 753 mmHg 47%
    12:00 +27°C° 0 mm 4 mps 753 mmHg 48%
    13:00 +27°C° 0 mm 4 mps 752 mmHg 48%
    14:00 +27°C° 0 mm 4 mps 752 mmHg 48%
    15:00 +27°C° 0 mm 4 mps 752 mmHg 52%
    16:00 +26°C° 0 mm 4 mps 752 mmHg 56%
    17:00 +25°C° 0 mm 4 mps 751 mmHg 59%
    18:00 +24°C° 0 mm 3 mps 751 mmHg 64%
    19:00 +21°C° 0 mm 3 mps 751 mmHg 70%
    20:00 +19°C° 0 mm 2 mps 751 mmHg 75%
    21:00 +19°C° 0 mm 2 mps 751 mmHg 72%
    22:00 +19°C° 0 mm 2 mps 750 mmHg 68%
    23:00 +19°C° 0 mm 2 mps 750 mmHg 65%
    Mostrar más